Back to catalog

CSTP-4.2

AliveScienceSSO
NORAD 64883·PAYLOAD·🇷🇺 Russia
This satellite name has not been confirmed by official sources yet.

Launched Jul 25, 2025 from Vostochny Cosmodrome

Loading…

Next Passes (next 24 hours)

TLE

FreshSource: Space-Track

Epoch: Sep 14, 2026, 14:50 UTC

1 64883U 25155H   26257.61843336  .00007369  00000-0  24943-3 0  9993
2 64883  97.4682 226.5392 0006072 199.6339 160.4669 15.30885369 94431

Track CSTP-4.2 in real time with AllMySat

Download on the App Store